Weather History for KPQN - April, 2013

Change the Weather History Date:

Saturday, April 6, 2013

  Actual Average Record
Temperature  
Mean Temperature 44 °F -  
Max Temperature 55 °F - - ()
Min Temperature 33 °F - - ()
Degree Days  
Heating Degree Days 21    
Moisture  
Dew Point 37 °F    
Average Humidity 71    
Maximum Humidity 93    
Minimum Humidity 51    
Precipitation  
Precipitation 0.01 in - - ()
Sea Level Pressure  
Sea Level Pressure 29.60 in    
Wind  
Wind Speed 15 mph (NNW)    
Max Wind Speed 22 mph    
Max Gust Speed 29 mph    
Visibility 10 miles    
Events Rain    
T = Trace of Precipitation, MM = Missing Value Source: NWS Daily Summary

Daily Weather History Graph

Daily Weather History Graph

Search for Another Location

Airport or City:

Trip Planner

Search our weather history database for the weather conditions in past years. The results will help you decide how hot, cold, wet, or windy it might be!

Date:

Astronomy

Apr. 06, 2013 Rise Set
Actual Time 6:57 AM CDT 7:58 PM CDT
Civil Twilight 6:27 AM CDT 8:28 PM CDT
Nautical Twilight 5:52 AM CDT 9:03 PM CDT
Astronomical Twilight 5:15 AM CDT 9:40 PM CDT
Moon 4:48 AM CDT (4/6) 4:22 PM CDT (4/6)
Length of Visible Light 14h 00m
Length of Day
13h 01m
Waning Crescent, 15% of the Moon is Illuminated
Apr 6
Waning Crescent
Apr 10
New
Apr 18
First Quarter
Apr 25
Full
May 2
Last Quarter

Hourly Weather History & Observations

Time (CDT) Temp. Windchill Dew Point Humidity Pressure Visibility Wind Dir Wind Speed Gust Speed Precip Events Conditions
12:13 AM 48.2 °F - 35.6 °F 62% 29.64 in 10.0 mi SSE 17.3 mph - N/A   Scattered Clouds
12:33 AM 48.2 °F - 35.6 °F 62% 29.63 in 10.0 mi SSE 13.8 mph - N/A   Scattered Clouds
12:53 AM 48.2 °F - 35.6 °F 62% 29.61 in 10.0 mi SSE 16.1 mph 21.9 mph N/A   Mostly Cloudy
1:13 AM 48.2 °F - 35.6 °F 62% 29.60 in 10.0 mi SSE 18.4 mph 23.0 mph N/A   Mostly Cloudy
1:33 AM 48.2 °F - 37.4 °F 66% 29.60 in 10.0 mi SSE 16.1 mph 21.9 mph N/A   Scattered Clouds
1:53 AM 48.2 °F - 37.4 °F 66% 29.59 in 10.0 mi SSE 15.0 mph - N/A   Scattered Clouds
2:13 AM 48.2 °F - 37.4 °F 66% 29.57 in 10.0 mi SSE 15.0 mph 20.7 mph N/A   Scattered Clouds
2:33 AM 48.2 °F - 37.4 °F 66% 29.56 in 10.0 mi SSE 13.8 mph 19.6 mph N/A   Mostly Cloudy
2:53 AM 48.2 °F - 37.4 °F 66% 29.56 in 10.0 mi South 10.4 mph - N/A   Mostly Cloudy
3:13 AM 50.0 °F - 37.4 °F 62% 29.52 in 10.0 mi South 19.6 mph 25.3 mph N/A   Scattered Clouds
3:33 AM 50.0 °F - 37.4 °F 62% 29.52 in 10.0 mi South 21.9 mph 28.8 mph N/A   Clear
3:53 AM 50.0 °F - 39.2 °F 66% 29.53 in 10.0 mi South 20.7 mph 25.3 mph N/A   Mostly Cloudy
4:13 AM 50.0 °F - 37.4 °F 62% 29.52 in 10.0 mi South 16.1 mph - N/A   Scattered Clouds
4:33 AM 50.0 °F - 39.2 °F 66% 29.52 in 10.0 mi South 18.4 mph - N/A   Mostly Cloudy
4:53 AM 50.0 °F - 39.2 °F 66% 29.51 in 10.0 mi South 16.1 mph 20.7 mph N/A   Overcast
5:13 AM 48.2 °F - 39.2 °F 71% 29.51 in 10.0 mi South 15.0 mph - N/A   Overcast
5:33 AM 48.2 °F - 39.2 °F 71% 29.50 in 10.0 mi South 16.1 mph - N/A   Overcast
5:53 AM 48.2 °F - 39.2 °F 71% 29.49 in 10.0 mi South 15.0 mph - N/A   Mostly Cloudy
6:13 AM 48.2 °F - 39.2 °F 71% 29.49 in 10.0 mi South 12.7 mph - N/A   Clear
6:33 AM 48.2 °F - 39.2 °F 71% 29.49 in 10.0 mi SSE 9.2 mph - N/A   Clear
6:53 AM 46.4 °F 42.4 °F 37.4 °F 71% 29.49 in 10.0 mi South 8.1 mph - N/A   Clear
7:13 AM 46.4 °F 41.9 °F 37.4 °F 71% 29.49 in 10.0 mi South 9.2 mph - N/A   Clear
7:33 AM 46.4 °F 41.5 °F 39.2 °F 76% 29.48 in 10.0 mi South 10.4 mph - N/A   Clear
7:53 AM 46.4 °F 41.9 °F 39.2 °F 76% 29.48 in 10.0 mi SSW 9.2 mph - N/A   Clear
8:13 AM 44.6 °F 40.2 °F 35.6 °F 71% 29.48 in 10.0 mi West 8.1 mph - N/A   Clear
8:33 AM 44.6 °F 38.8 °F 35.6 °F 71% 29.49 in 10.0 mi West 11.5 mph - N/A   Clear
8:53 AM 42.8 °F 37.5 °F 35.6 °F 76% 29.50 in 10.0 mi West 9.2 mph - N/A   Scattered Clouds
9:13 AM 42.8 °F 36.2 °F 35.6 °F 76% 29.49 in 10.0 mi WNW 12.7 mph - N/A   Scattered Clouds
9:33 AM 42.8 °F 35.8 °F 37.4 °F 81% 29.50 in 10.0 mi WNW 13.8 mph 17.3 mph N/A   Scattered Clouds
9:53 AM 44.6 °F 38.8 °F 37.4 °F 76% 29.50 in 10.0 mi WNW 11.5 mph - N/A   Scattered Clouds
10:13 AM 46.4 °F 39.2 °F 37.4 °F 71% 29.52 in 10.0 mi NW 18.4 mph 21.9 mph N/A   Scattered Clouds
10:33 AM 44.6 °F 37.2 °F 39.2 °F 81% 29.52 in 10.0 mi NW 17.3 mph - N/A Rain Light Rain
10:53 AM 44.6 °F 36.4 °F 39.2 °F 81% 29.52 in 10.0 mi NNW 20.7 mph 27.6 mph N/A Rain Light Rain
11:13 AM 42.8 °F 34.8 °F 37.4 °F 81% 29.55 in 10.0 mi NW 17.3 mph - N/A Rain Light Rain
11:33 AM 41.0 °F 32.8 °F 37.4 °F 87% 29.56 in 7.0 mi NW 16.1 mph 20.7 mph N/A Rain Light Rain
11:53 AM 41.0 °F 33.9 °F 37.4 °F 87% 29.56 in 10.0 mi NW 12.7 mph - 0.01 in   Scattered Clouds
12:13 PM 42.8 °F 34.0 °F 37.4 °F 81% 29.57 in 10.0 mi NNW 20.7 mph 27.6 mph N/A   Scattered Clouds
12:33 PM 42.8 °F 34.5 °F 37.4 °F 81% 29.57 in 10.0 mi NNW 18.4 mph 27.6 mph N/A   Mostly Cloudy
12:53 PM 44.6 °F 37.2 °F 37.4 °F 76% 29.58 in 10.0 mi NNW 17.3 mph 26.5 mph N/A   Mostly Cloudy
1:13 PM 42.8 °F 34.0 °F 35.6 °F 76% 29.58 in 10.0 mi NNW 20.7 mph 26.5 mph N/A   Overcast
1:33 PM 44.6 °F 36.6 °F 37.4 °F 76% 29.58 in 10.0 mi NNW 19.6 mph - N/A   Mostly Cloudy
1:53 PM 46.4 °F 38.7 °F 37.4 °F 71% 29.58 in 10.0 mi NNW 20.7 mph 24.2 mph N/A   Scattered Clouds
2:13 PM 50.0 °F - 37.4 °F 62% 29.58 in 10.0 mi NNW 18.4 mph 25.3 mph N/A   Clear
2:33 PM 51.8 °F - 37.4 °F 58% 29.59 in 10.0 mi NNW 16.1 mph 26.5 mph N/A   Clear
2:53 PM 53.6 °F - 37.4 °F 54% 29.59 in 10.0 mi North 16.1 mph 28.8 mph N/A   Clear
3:13 PM 55.4 °F - 37.4 °F 51% 29.60 in 10.0 mi NNW 18.4 mph 26.5 mph N/A   Clear
3:33 PM 55.4 °F - 39.2 °F 54% 29.61 in 10.0 mi NNW 19.6 mph 25.3 mph N/A   Clear
3:53 PM 53.6 °F - 39.2 °F 58% 29.61 in 10.0 mi NNW 17.3 mph 27.6 mph N/A   Clear
4:13 PM 55.4 °F - 39.2 °F 54% 29.62 in 10.0 mi NNW 17.3 mph 27.6 mph N/A   Clear
4:33 PM 55.4 °F - 39.2 °F 54% 29.62 in 10.0 mi NNW 18.4 mph 24.2 mph N/A   Clear
4:53 PM 55.4 °F - 39.2 °F 54% 29.64 in 10.0 mi NNW 13.8 mph 25.3 mph N/A   Clear
5:13 PM 55.4 °F - 37.4 °F 51% 29.65 in 10.0 mi NNW 20.7 mph 25.3 mph N/A   Clear
5:33 PM 55.4 °F - 37.4 °F 51% 29.66 in 10.0 mi NNW 17.3 mph 23.0 mph N/A   Clear
5:53 PM 55.4 °F - 37.4 °F 51% 29.67 in 10.0 mi North 17.3 mph 26.5 mph N/A   Clear
6:13 PM 53.6 °F - 37.4 °F 54% 29.68 in 10.0 mi NNW 17.3 mph 23.0 mph N/A   Clear
6:33 PM 53.6 °F - 37.4 °F 54% 29.69 in 10.0 mi North 13.8 mph 24.2 mph N/A   Clear
6:53 PM 51.8 °F - 37.4 °F 58% 29.69 in 10.0 mi NNE 13.8 mph 23.0 mph N/A   Clear
7:13 PM 51.8 °F - 37.4 °F 58% 29.70 in 10.0 mi NNE 11.5 mph - N/A   Clear
7:33 PM 48.2 °F - 37.4 °F 66% 29.70 in 10.0 mi NNE 9.2 mph - N/A   Clear
7:53 PM 46.4 °F 42.9 °F 37.4 °F 71% 29.71 in 10.0 mi NNE 6.9 mph - N/A   Clear
8:13 PM 44.6 °F 40.7 °F 37.4 °F 76% 29.73 in 10.0 mi NE 6.9 mph - N/A   Clear
8:33 PM 42.8 °F 39.3 °F 35.6 °F 76% 29.75 in 10.0 mi NE 5.8 mph - N/A   Clear
8:53 PM 39.2 °F 33.6 °F 35.6 °F 87% 29.75 in 10.0 mi NE 8.1 mph - N/A   Clear
9:13 PM 37.4 °F 30.8 °F 35.6 °F 93% 29.76 in 10.0 mi NE 9.2 mph - N/A   Clear
9:33 PM 37.4 °F 31.4 °F 33.8 °F 87% 29.77 in 10.0 mi NE 8.1 mph - N/A   Clear
9:53 PM 35.6 °F 29.9 °F 33.8 °F 93% 29.78 in 10.0 mi NNE 6.9 mph - N/A   Clear
10:13 PM 35.6 °F 30.7 °F 32.0 °F 87% 29.79 in 7.0 mi NE 5.8 mph - N/A   Clear
10:33 PM 33.8 °F 27.0 °F 32.0 °F 93% 29.79 in 7.0 mi NE 8.1 mph - N/A   Clear
10:53 PM 33.8 °F 27.7 °F 32.0 °F 93% 29.79 in 7.0 mi NNE 6.9 mph - N/A   Clear
11:13 PM 33.8 °F - 30.2 °F 87% 29.80 in 7.0 mi Calm Calm - N/A   Scattered Clouds
11:33 PM 33.8 °F 27.7 °F 32.0 °F 93% 29.79 in 5.0 mi NNE 6.9 mph - N/A   Mostly Cloudy
11:53 PM 33.8 °F 27.7 °F 32.0 °F 93% 29.81 in 5.0 mi NNW 6.9 mph - N/A   Overcast